Location: St Paul
(33.4390°N, 83.7350°W)
Time: 08:40:31
(UTC-04:00)

Atlas Centaur 2 - Pass Details

Date: 06 October 2017
Orbit: 459 x 1313 km, 30.4° (Epoch: 20 October)

Event Time Altitude Azimuth Distance (km) Brightness Sun altitude
Rises 20:26:48 0° 212° (SSW) 3,487 5.8 -16.4°
Reaches altitude 10° 20:29:43 10° 199° (SSW) 2,696 5.0 -17.0°
Maximum altitude 20:34:54 24° 148° (SSE) 2,086 3.9 -18.0°
Enters shadow 20:36:41 22° 128° (SE) 2,246 3.9 -18.4°
